[[{"header":{"parameterUnit":"m.s-1","parameterCategory":1,"la1":30.2991,"la2":30.254,"lo1":-89.0895,"lo2":-89.0444,"dy":0.0017,"dx":0.0017,"nx":28,"ny":28,"refTime":"2025-04-02T03:00:00:Z","depth":0,"parameterNumber":2,"parameterNumberName":"U-component_of_WINDS"},"data":[0,0,0,0,0,0,0,0,0,0,0,0,0,0,0,0,0,0,0,0,0,0,0,0,0,0,0,0,0,0,0,0,0,0,0,0,0,0,0,0,0,0,0,0,0,0,0,0,0,0,0,0,0,0,0,0,0,0,-4.5388,-4.5389,0,-4.5446,-4.5447,-4.5448,-4.5396,-4.5394,-4.5392,-4.539,-4.5451,-4.5455,-4.5458,0,0,0,0,0,0,0,0,0,0,0,0,0,-4.5236,-4.5239,-4.5388,-4.5389,-4.5389,-4.5446,-4.5447,-4.5448,-4.5396,-4.5394,-4.5391,-4.5389,-4.545,-4.5454,-4.5459,0,0,0,0,0,0,0,0,0,0,0,0,0,-4.5299,-4.524,-4.5388,-4.5371,-4.537,-4.5446,-4.5447,-4.5448,-4.5397,-4.5394,-4.5391,-4.5388,-4.5449,-4.5454,-4.5459,-4.5556,0,0,-4.5476,-4.5478,0,0,0,0,0,0,0,0,-4.5295,-4.5304,-4.5372,-4.5372,-4.5371,-4.5411,-4.5416,-4.5484,-4.5398,-4.5387,-4.539,-4.5386,-4.544,-4.5446,-4.5464,-4.5559,-4.5561,-4.5476,-4.5479,-4.5482,-4.5483,0,0,0,0,0,0,0,-4.5291,-4.5302,-4.5411,-4.5374,-4.5373,-4.5361,-4.5367,-4.5428,-4.5431,-4.5387,-4.5384,-4.5391,-4.5439,-4.5459,-4.5465,-4.5562,-4.5476,-4.5481,-4.5484,-4.5486,-4.5741,-4.5744,0,0,0,0,0,0,-4.5288,-4.5298,-4.5409,-4.5413,-4.5324,-4.5366,-4.5372,-4.5401,-4.543,-4.5431,-4.5394,-4.5389,-4.5451,-4.5459,-4.5467,-4.5582,-4.5482,-4.5487,-4.549,-4.5737,-4.5742,-4.5745,0,0,0,0,0,0,-4.5285,-4.5298,-4.5407,-4.5355,-4.5368,-4.5372,-4.5405,-4.5404,-4.5423,-4.5435,-4.5435,-4.5413,-4.5449,-4.546,-4.5534,-4.5584,-4.5489,-4.5494,-4.5733,-4.5739,-4.5744,-4.5813,0,0,0,0,0,0,-4.5281,-4.5297,-4.5333,-4.5356,-4.537,-4.5472,-4.5408,-4.5407,-4.5433,-4.5426,-4.5453,-4.5454,-4.5448,-4.5527,-4.554,-4.5589,-4.5498,-4.5729,-4.5736,-4.5742,-4.5807,-4.582,-4.5832,0,0,0,0,0,-4.5275,-4.5351,-4.5335,-4.5349,-4.5415,-4.5475,-4.5484,-4.5473,-4.5437,-4.5473,-4.5481,-4.5454,-4.5577,-4.5535,-4.5549,-4.5601,-4.5726,-4.5734,-4.5741,-4.5801,-4.5818,-4.5832,0,0,0,0,0,0,-4.5334,-4.5353,-4.5336,-4.5421,-4.5447,-4.5466,-4.5512,-4.5492,-4.5528,-4.5521,-4.5508,-4.5514,-4.5593,-4.5605,-4.5558,-4.5697,-4.5645,-4.5657,-4.5686,-4.5702,-4.5714,-4.5709,-4.5503,0,0,0,0,0,-4.5357,-4.5403,-4.5418,-4.5491,-4.5505,-4.5507,-4.5532,-4.5523,-4.5549,-4.556,-4.5572,-4.56,-4.5645,-4.5674,-4.5716,-4.5809,-4.5815,-4.5853,-4.5865,-4.5876,-4.5885,-4.5936,-4.5953,-4.5771,-4.5771,-4.5771,0,0,-4.5404,-4.5421,-4.545,-4.5504,-4.5522,-4.5571,-4.5516,-4.557,-4.5606,-4.5568,-4.5639,-4.565,-4.568,-4.5764,-4.5802,-4.5776,-4.5937,-4.5886,-4.5894,-4.5897,-4.5945,-4.5963,-4.5978,-4.5777,-4.5776,-4.5775,0,0,-4.5515,-4.5533,-4.5595,-4.5616,-4.5645,-4.5646,-4.5662,-4.5685,-4.569,-4.5762,-4.5734,-4.5778,-4.5856,-4.5878,-4.59,-4.6023,-4.5999,-4.6037,-4.6103,-4.6152,-4.6167,-4.6179,-4.6222,-4.6238,-4.6047,-4.6047,-4.6047,0,-4.557,-4.5642,-4.5631,-4.5687,-4.5711,-4.568,-4.5744,-4.5765,-4.5807,-4.5825,-4.5796,-4.5893,-4.5911,-4.6,-4.6031,-4.605,-4.6067,-4.6032,-4.6165,-4.6178,-4.6189,-4.6231,-4.6247,-4.6051,-4.6051,-4.605,-4.605,0,-4.5708,-4.5759,-4.5807,-4.5847,-4.5878,-4.5938,-4.5937,-4.5969,-4.5958,-4.5963,-4.6036,-4.6057,-4.6103,-4.6124,-4.6114,-4.6213,-4.6196,-4.6167,-4.6114,-4.6211,-4.625,-4.6265,-4.6057,-4.6056,-4.6055,-4.6054,0,0,-4.5855,-4.589,-4.5908,-4.5926,-4.5958,-4.5997,-4.6057,-4.6101,-4.6129,-4.6161,-4.621,-4.6278,-4.6252,-4.6276,-4.6269,-4.6313,-4.6408,-4.6278,-4.6278,-4.63,-4.6519,-4.654,-4.6558,-4.6394,-4.6397,-4.6399,-4.6516,0,-4.5966,-4.6068,-4.6061,-4.6158,-4.6205,-4.6177,-4.6229,-4.6255,-4.6262,-4.6303,-4.6311,-4.6359,-4.6321,-4.6336,-4.6378,-4.6388,-4.6452,-4.6379,-4.644,-4.6442,-4.6431,-4.6578,-4.66,-4.6709,-4.6531,-4.6534,-4.6536,0,-4.6108,-4.6144,-4.6245,-4.6271,-4.629,-4.6337,-4.6378,-4.6418,-4.6448,-4.645,-4.6479,-4.6465,-4.6526,-4.6474,-4.656,-4.651,-4.6536,-4.6545,-4.6549,-4.6552,-4.6493,-4.6584,-4.6743,-4.6759,-4.6559,-4.6557,-4.6556,0,-4.6204,-4.6278,-4.6348,-4.6365,-4.6396,-4.643,-4.6445,-4.6471,-4.6499,-4.6536,-4.6554,-4.6598,-4.6622,-4.6657,-4.6656,-4.6618,-4.6742,-4.669,-4.6746,-4.6746,-4.6771,-4.6769,-4.6935,-4.679,-4.679,-4.679,-4.6789,0,-4.6328,-4.6391,-4.6391,-4.6434,-4.6504,-4.6497,-4.6567,-4.6579,-4.6603,-4.6649,-4.6629,-4.6672,-4.6668,-4.6713,-4.6713,-4.6784,-4.6795,-4.6799,-4.6797,-4.6799,-4.6799,-4.6814,-4.6806,-4.6794,-4.6793,-4.6792,-4.6792,0,-4.6445,-4.6448,-4.6522,-4.6547,-4.6555,-4.6605,-4.6627,-4.6668,-4.6674,-4.6733,-4.6746,-4.6756,-4.6807,-4.681,-4.687,-4.687,-4.6956,-4.6947,-4.6945,-4.6943,-4.6998,-4.6992,-4.7178,-4.7202,-4.7043,-4.7045,-4.7046,0,-4.6523,-4.657,-4.66,-4.6629,-4.6646,-4.6693,-4.6721,-4.6717,-4.6748,-4.6786,-4.6824,-4.6873,-4.6912,-4.6997,-4.701,-4.7056,-4.7047,-4.7109,-4.7054,-4.7054,-4.7047,-4.7043,-4.7048,-4.7119,-4.7121,-4.7122,-4.7123,0,-4.666,-4.666,-4.6701,-4.6744,-4.6778,-4.6812,-4.6843,-4.6868,-4.6868,-4.6904,-4.6956,-4.6987,-4.7048,-4.7098,-4.7143,-4.716,-4.7142,-4.7141,-4.7156,-4.7158,-4.7154,-4.7156,-4.6973,-4.7136,-4.7135,-4.7134,-4.7133,-4.7133,-4.676,-4.6801,-4.6829,-4.6876,-4.6899,-4.6929,-4.6969,-4.6981,-4.7024,-4.7073,-4.7069,-4.7127,-4.7157,-4.7216,-4.7237,-4.7283,-4.7262,-4.7284,-4.7289,-4.7294,-4.73,-4.7149,-4.7291,-4.7291,-4.7291,-4.729,-4.729,0,-4.6895,-4.6912,-4.6956,-4.7,-4.7038,-4.7018,-4.7052,-4.7085,-4.7136,-4.7166,-4.7205,-4.7266,-4.7315,-4.7333,-4.7381,-4.7414,-4.7408,-4.7427,-4.7423,-4.7428,-4.7316,-4.7298,-4.7432,-4.7432,-4.7432,-4.7432,-4.7432,-4.7431,-4.697,-4.7039,-4.7042,-4.7123,-4.714,-4.7196,-4.7217,-4.7246,-4.7269,-4.7338,-4.7378,-4.7389,-4.7415,-4.7465,-4.7509,-4.7513,-4.7531,-4.7554,-4.7555,-4.745,-4.7435,-4.7422,-4.7404,-4.7558,-4.7559,-4.7662,-4.7663,-4.7664]},{"header":{"parameterUnit":"m.s-1","parameterCategory":1,"la1":30.2991,"la2":30.254,"lo1":-89.0895,"lo2":-89.0444,"dy":0.0017,"dx":0.0017,"nx":28,"ny":28,"refTime":"2025-04-02T03:00:00:Z","depth":0,"parameterNumber":3,"parameterNumberName":"V-component_of_WINDS"},"data":[0,0,0,0,0,0,0,0,0,0,0,0,0,0,0,0,0,0,0,0,0,0,0,0,0,0,0,0,0,0,0,0,0,0,0,0,0,0,0,0,0,0,0,0,0,0,0,0,0,0,0,0,0,0,0,0,0,0,3.9785,3.9787,0,3.9906,3.9908,3.9909,3.9994,3.9994,3.9995,3.9996,4.0115,4.0117,4.012,0,0,0,0,0,0,0,0,0,0,0,0,0,3.9624,3.9626,3.9785,3.9787,3.9788,3.9906,3.9908,3.9909,3.9994,3.9994,3.9995,3.9996,4.0114,4.0117,4.012,0,0,0,0,0,0,0,0,0,0,0,0,0,3.9714,3.9627,3.9785,3.9845,3.9851,3.9906,3.9908,3.991,3.9993,3.9994,3.9995,3.9996,4.0113,4.0116,4.012,4.0124,0,0,4.0132,4.0133,0,0,0,0,0,0,0,0,3.9709,3.972,3.9834,3.9841,3.9848,3.9936,3.9894,3.9981,3.9993,3.9939,3.9996,3.9997,4.0054,4.0063,4.0083,4.0129,4.0134,4.0132,4.0134,4.0136,4.0137,0,0,0,0,0,0,0,3.9702,3.9715,3.9833,3.9836,3.9844,3.9864,3.9878,3.9911,3.9989,3.9944,3.995,3.9964,4.0058,4.0079,4.0086,4.0136,4.0132,4.0135,4.0138,4.0139,4.0193,4.0192,0,0,0,0,0,0,3.9687,3.9709,3.9829,3.9837,3.978,3.9866,3.9882,3.9907,3.9989,4.0003,3.9963,3.9967,4.0072,4.0082,4.0091,4.0102,4.0136,4.014,4.0142,4.0194,4.0193,4.0192,0,0,0,0,0,0,3.9683,3.9697,3.9824,3.9775,3.9793,3.9868,3.9895,3.9908,3.993,4.0004,4.0017,3.9971,4.0073,4.0086,4.0116,4.0108,4.0141,4.0145,4.0195,4.0194,4.0193,4.0124,0,0,0,0,0,0,3.9678,3.9695,3.9698,3.9774,3.9795,3.9848,3.9895,3.991,3.9937,3.9944,4.0014,4.0027,4.0075,4.011,4.012,4.0113,4.0148,4.0196,4.0194,4.0193,4.0127,4.012,4.0114,0,0,0,0,0,3.9672,3.9672,3.9698,3.9712,3.98,3.9847,3.9859,3.9916,3.9936,3.9939,3.9987,4.0025,4.0107,4.0112,4.0124,4.0119,4.0197,4.0195,4.0193,4.013,4.0121,4.0114,0,0,0,0,0,0,3.9591,3.9683,3.9713,3.9737,3.9784,3.9861,3.9867,3.9905,3.9945,3.995,4.0017,4.0032,4.0055,4.009,4.0094,4.0127,4.0156,4.0157,4.0104,4.0097,4.0091,4.0082,4.0151,0,0,0,0,0,3.9576,3.9608,3.9686,3.9701,3.9723,3.9791,3.9813,3.9853,3.9904,3.9923,3.9973,4.0019,4.0056,4.0078,4.0115,4.0132,4.0149,4.0134,4.0128,4.0122,4.0122,4.0135,4.013,4.0186,4.0186,4.0186,0,0,3.9546,3.96,3.9616,3.9686,3.9727,3.9758,3.9807,3.9837,3.986,3.9927,3.996,3.9998,4.0054,4.0078,4.0091,4.0107,4.0111,4.012,4.0115,4.0118,4.0133,4.0127,4.0123,4.0184,4.0185,4.0185,0,0,3.9506,3.955,3.9568,3.9608,3.9671,3.9716,3.972,3.9792,3.9821,3.9855,3.9907,3.9934,3.9995,4.0034,4.0061,4.0037,4.0075,4.0047,4.0015,4.0027,4.0022,4.0019,4.0012,4.0008,4.0047,4.0047,4.0046,0,3.946,3.951,3.9572,3.96,3.963,3.9694,3.9712,3.9748,3.9818,3.9836,3.9854,3.9934,3.9975,4.001,4.0005,4.0024,4.0031,4.004,4.0018,4.0015,4.0013,4.0007,4.0004,4.0043,4.0043,4.0044,4.0044,0,3.9451,3.9485,3.9491,3.956,3.959,3.9613,3.9678,3.9701,3.9738,3.9781,3.9815,3.9868,3.9918,3.9929,3.9964,3.9969,3.9978,4.0006,4.0037,4.0003,3.9999,3.9997,4.0038,4.0039,4.004,4.0041,0,0,3.9364,3.9468,3.9469,3.9502,3.9576,3.9603,3.9628,3.9679,3.9698,3.9744,3.9768,3.9818,3.9845,3.9876,3.9917,3.9927,3.9907,3.9954,3.9957,3.9945,3.9917,3.9897,3.9893,3.9932,3.9931,3.9931,3.9913,0,3.9337,3.9389,3.9446,3.9477,3.9509,3.9571,3.9594,3.9641,3.9682,3.9714,3.9759,3.9795,3.9827,3.9846,3.9859,3.9907,3.9902,3.9909,3.9954,3.9955,3.994,3.9891,3.9869,3.9849,3.9911,3.9911,3.9911,0,3.9312,3.9358,3.9393,3.9466,3.9482,3.9501,3.9553,3.9584,3.9638,3.9667,3.9703,3.9747,3.9776,3.9803,3.9845,3.9848,3.9869,3.9895,3.9896,3.9903,3.9932,3.9898,3.9844,3.9841,3.9908,3.9909,3.9909,0,3.9248,3.9317,3.9349,3.9374,3.9459,3.9471,3.9507,3.9563,3.959,3.9635,3.9654,3.97,3.9726,3.9761,3.9816,3.983,3.9852,3.9883,3.9877,3.9876,3.988,3.9879,3.983,3.9892,3.9892,3.9892,3.9892,0,3.9213,3.9232,3.9321,3.934,3.9364,3.9428,3.9449,3.949,3.954,3.9567,3.9622,3.9646,3.9717,3.9749,3.9792,3.9821,3.9832,3.9856,3.9868,3.9852,3.9849,3.9868,3.9872,3.9891,3.9891,3.9891,3.9891,0,3.9145,3.9205,3.9243,3.9321,3.9341,3.9355,3.9421,3.9441,3.9486,3.952,3.9531,3.9601,3.9642,3.9701,3.9759,3.9788,3.9811,3.9828,3.9793,3.98,3.9792,3.9793,3.9755,3.9753,3.9813,3.9813,3.9812,0,3.9119,3.9136,3.9216,3.924,3.9274,3.931,3.934,3.9403,3.9431,3.9496,3.9508,3.9554,3.9595,3.9657,3.9712,3.9757,3.9777,3.9761,3.9784,3.9769,3.9779,3.9778,3.978,3.9755,3.9754,3.9753,3.9753,0,3.9068,3.9098,3.9138,3.919,3.9223,3.9266,3.9311,3.9327,3.94,3.9428,3.9473,3.9504,3.9565,3.961,3.9663,3.9698,3.9738,3.9745,3.9746,3.9732,3.9711,3.9724,3.9779,3.9746,3.9746,3.9747,3.9747,3.9748,3.9022,3.9041,3.9101,3.9145,3.9186,3.9227,3.9251,3.9299,3.9338,3.9394,3.9428,3.9471,3.9526,3.9601,3.9635,3.9669,3.9685,3.9686,3.9687,3.9687,3.9682,3.9705,3.9678,3.9678,3.9679,3.9679,3.9679,0,3.8976,3.9018,3.9057,3.912,3.9155,3.919,3.9242,3.9268,3.9306,3.9354,3.9394,3.9444,3.9489,3.9547,3.9596,3.9611,3.9631,3.9622,3.9622,3.963,3.9664,3.9659,3.9606,3.9606,3.9606,3.9606,3.9606,3.9606,3.8956,3.899,3.9026,3.9081,3.9123,3.9166,3.9193,3.9232,3.9271,3.9326,3.9364,3.9403,3.9455,3.9508,3.955,3.9566,3.9582,3.9568,3.9589,3.9621,3.9627,3.9634,3.9629,3.957,3.957,3.9553,3.9553,3.9552]}]]